Location: Bratislava
(48.1500°N, 17.1170°E)
Time: 09:25:01
(UTC+02:00)

ISS - Visible Passes

Search period start: 26 March 2017 00:00
Search period end: 05 April 2017 01:00
Orbit: 399 x 409 km, 51.6° (Epoch: 26 March)

Date Brightness Start Highest point End Pass type
(mag) Time Alt. Az. Time Alt. Az. Time Alt. Az.
27 Mar -1.9 20:16:50 10° S 20:18:27 14° SE 20:18:27 14° SE visible
28 Mar -3.3 20:59:12 10° SW 21:01:53 41° S 21:01:53 41° S visible
29 Mar -2.8 20:07:14 10° SSW 20:10:04 27° SE 20:12:19 14° E visible
29 Mar -2.2 21:43:05 10° WSW 21:45:01 32° W 21:45:01 32° W visible
30 Mar -4.0 20:50:40 10° WSW 20:53:56 83° SSE 20:55:14 33° ENE visible
30 Mar -0.7 22:27:26 10° W 22:27:54 13° WNW 22:27:54 13° WNW visible
31 Mar -3.6 19:58:22 10° SW 20:01:33 53° SSE 20:04:46 10° ENE visible
31 Mar -3.0 21:34:52 10° W 21:37:56 49° NNW 21:37:56 49° NNW visible
01 Apr -3.5 20:42:19 10° W 20:45:34 63° NNW 20:47:49 18° ENE visible
01 Apr -1.2 22:19:11 10° WNW 22:20:29 21° WNW 22:20:29 21° WNW visible
02 Apr -2.9 21:26:38 10° WNW 21:29:48 43° N 21:30:15 40° NNE visible
03 Apr -3.0 20:34:03 10° W 20:37:13 47° N 20:39:56 13° ENE visible
03 Apr -1.7 22:10:49 10° WNW 22:12:35 28° NW 22:12:35 28° NW visible
04 Apr -3.0 21:18:18 10° WNW 21:21:28 44° N 21:22:13 37° NE visible
04 Apr -0.4 22:54:49 10° WNW 22:54:51 10° WNW 22:54:51 10° WNW visible
